Year,Month,Day,Hour,Minute,Value (Times are PST for windspeed in km/hr)
2006,12,13,00,00,4.30
2006,12,13,00,01,3.40
2006,12,13,00,02,10.90
2006,12,13,00,03,9.50
2006,12,13,00,04,5.60
2006,12,13,00,05,3.40
2006,12,13,00,06,4.60
2006,12,13,00,07,7.20
2006,12,13,00,08,9.50
2006,12,13,00,09,6.40
2006,12,13,00,10,4.90
2006,12,13,00,11,8.30
2006,12,13,00,12,4.20
2006,12,13,00,13,7.30
2006,12,13,00,14,13.70
2006,12,13,00,15,9.40
2006,12,13,00,16,10.10
2006,12,13,00,17,4.90
2006,12,13,00,18,6.10
2006,12,13,00,19,5.50
2006,12,13,00,20,3.20
2006,12,13,00,21,3.30
2006,12,13,00,22,4.80
2006,12,13,00,23,4.10
2006,12,13,00,24,3.40
2006,12,13,00,25,1.00
2006,12,13,00,26,2.20
2006,12,13,00,27,3.90
2006,12,13,00,28,3.50
2006,12,13,00,29,4.20
2006,12,13,00,30,3.90
2006,12,13,00,31,1.40
2006,12,13,00,32,0.70
2006,12,13,00,33,0.00
2006,12,13,00,34,2.80
2006,12,13,00,35,3.80
2006,12,13,00,36,5.00
2006,12,13,00,37,4.20
2006,12,13,00,38,5.10
2006,12,13,00,39,6.10
2006,12,13,00,40,4.10
2006,12,13,00,41,5.90
2006,12,13,00,42,5.10
2006,12,13,00,43,4.80
2006,12,13,00,44,6.00
2006,12,13,00,45,4.60
2006,12,13,00,46,2.50
2006,12,13,00,47,4.80
2006,12,13,00,48,3.40
2006,12,13,00,49,3.70
2006,12,13,00,50,3.10
2006,12,13,00,51,5.60
2006,12,13,00,52,4.90
2006,12,13,00,53,3.10
2006,12,13,00,54,5.40
2006,12,13,00,55,1.60
2006,12,13,00,56,2.10
2006,12,13,00,57,4.80
2006,12,13,00,58,7.90
2006,12,13,00,59,7.00
2006,12,13,01,00,8.60
2006,12,13,01,01,6.60
2006,12,13,01,02,5.70
2006,12,13,01,03,4.70
2006,12,13,01,04,4.30
2006,12,13,01,05,4.50
2006,12,13,01,06,3.70
2006,12,13,01,07,6.50
2006,12,13,01,08,6.20
2006,12,13,01,09,6.20
2006,12,13,01,10,8.20
2006,12,13,01,11,8.00
2006,12,13,01,12,7.20
2006,12,13,01,13,9.30
2006,12,13,01,14,11.20
2006,12,13,01,15,11.60
2006,12,13,01,16,13.00
2006,12,13,01,17,10.90
2006,12,13,01,18,8.60
2006,12,13,01,19,12.70
2006,12,13,01,20,13.20
2006,12,13,01,21,17.60
2006,12,13,01,22,13.80
2006,12,13,01,23,10.70
2006,12,13,01,24,8.10
2006,12,13,01,25,8.10
2006,12,13,01,26,13.70
2006,12,13,01,27,8.10
2006,12,13,01,28,9.90
2006,12,13,01,29,14.00
2006,12,13,01,30,13.40
2006,12,13,01,31,14.00
2006,12,13,01,32,10.00
2006,12,13,01,33,10.00
2006,12,13,01,34,11.30
2006,12,13,01,35,10.90
2006,12,13,01,36,12.20
2006,12,13,01,37,12.20
2006,12,13,01,38,17.00
2006,12,13,01,39,10.80
2006,12,13,01,40,13.60
2006,12,13,01,41,14.70
2006,12,13,01,42,15.90
2006,12,13,01,43,9.10
2006,12,13,01,44,8.10
2006,12,13,01,45,11.80
2006,12,13,01,46,11.20
2006,12,13,01,47,6.70
2006,12,13,01,48,4.70
2006,12,13,01,49,6.90
2006,12,13,01,50,9.70
2006,12,13,01,51,10.90
2006,12,13,01,52,8.40
2006,12,13,01,53,10.50
2006,12,13,01,54,6.40
2006,12,13,01,55,2.80
2006,12,13,01,56,6.70
2006,12,13,01,57,4.40
2006,12,13,01,58,1.70
2006,12,13,01,59,2.30
2006,12,13,02,00,0.90
2006,12,13,02,01,0.90
2006,12,13,02,02,0.90
2006,12,13,02,03,2.90
2006,12,13,02,04,2.40
2006,12,13,02,05,5.80
2006,12,13,02,06,7.10
2006,12,13,02,07,4.80
2006,12,13,02,08,0.30
2006,12,13,02,09,2.30
2006,12,13,02,10,4.60
2006,12,13,02,11,3.50
2006,12,13,02,12,3.20
2006,12,13,02,13,5.80
2006,12,13,02,14,5.60
2006,12,13,02,15,3.90
2006,12,13,02,16,4.60
2006,12,13,02,17,5.20
2006,12,13,02,18,6.40
2006,12,13,02,19,5.80
2006,12,13,02,20,6.50
2006,12,13,02,21,9.20
2006,12,13,02,22,5.50
2006,12,13,02,23,8.00
2006,12,13,02,24,4.40
2006,12,13,02,25,6.80
2006,12,13,02,26,5.10
2006,12,13,02,27,7.80
2006,12,13,02,28,18.70
2006,12,13,02,29,20.40
2006,12,13,02,30,23.90
2006,12,13,02,31,21.20
2006,12,13,02,32,22.90
2006,12,13,02,33,24.90
2006,12,13,02,34,22.80
2006,12,13,02,35,21.10
2006,12,13,02,36,19.10
2006,12,13,02,37,24.60
2006,12,13,02,38,19.20
2006,12,13,02,39,19.90
2006,12,13,02,40,13.90
2006,12,13,02,41,20.10
2006,12,13,02,42,22.20
2006,12,13,02,43,20.40
2006,12,13,02,44,13.50
2006,12,13,02,45,19.00
2006,12,13,02,46,24.90
2006,12,13,02,47,25.50
2006,12,13,02,48,19.20
2006,12,13,02,49,21.60
2006,12,13,02,50,18.40
2006,12,13,02,51,19.20
2006,12,13,02,52,18.50
2006,12,13,02,53,21.70
2006,12,13,02,54,29.80
2006,12,13,02,55,20.80
2006,12,13,02,56,17.50
2006,12,13,02,57,18.20
2006,12,13,02,58,23.90
2006,12,13,02,59,28.00
2006,12,13,03,00,23.30
2006,12,13,03,01,23.00
2006,12,13,03,02,19.40
2006,12,13,03,03,18.40
2006,12,13,03,04,14.80
2006,12,13,03,05,10.90
2006,12,13,03,06,14.10
2006,12,13,03,07,15.00
2006,12,13,03,08,15.60
2006,12,13,03,09,10.90
2006,12,13,03,10,15.90
2006,12,13,03,11,12.60
2006,12,13,03,12,15.80
2006,12,13,03,13,19.00
2006,12,13,03,14,21.00
2006,12,13,03,15,18.30
2006,12,13,03,16,16.50
2006,12,13,03,17,24.20
2006,12,13,03,18,20.40
2006,12,13,03,19,16.40
2006,12,13,03,20,21.20
2006,12,13,03,21,17.30
2006,12,13,03,22,17.20
2006,12,13,03,23,15.60
2006,12,13,03,24,15.30
2006,12,13,03,25,8.00
2006,12,13,03,26,8.10
2006,12,13,03,27,9.10
2006,12,13,03,28,13.30
2006,12,13,03,29,16.10
2006,12,13,03,30,25.00
2006,12,13,03,31,16.80
2006,12,13,03,32,22.50
2006,12,13,03,33,23.50
2006,12,13,03,34,19.90
2006,12,13,03,35,21.20
2006,12,13,03,36,26.10
2006,12,13,03,37,25.80
2006,12,13,03,38,35.30
2006,12,13,03,39,26.60
2006,12,13,03,40,15.40
2006,12,13,03,41,22.20
2006,12,13,03,42,22.00
2006,12,13,03,43,16.10
2006,12,13,03,44,13.30
2006,12,13,03,45,17.20
2006,12,13,03,46,15.10
2006,12,13,03,47,9.90
2006,12,13,03,48,20.20
2006,12,13,03,49,22.10
2006,12,13,03,50,28.50
2006,12,13,03,51,16.60
2006,12,13,03,52,22.30
2006,12,13,03,53,29.00
2006,12,13,03,54,18.70
2006,12,13,03,55,14.40
2006,12,13,03,56,20.20
2006,12,13,03,57,16.20
2006,12,13,03,58,13.40
2006,12,13,03,59,18.40
2006,12,13,04,00,15.00
2006,12,13,04,01,16.70
2006,12,13,04,02,14.20
2006,12,13,04,03,12.60
2006,12,13,04,04,15.70
2006,12,13,04,05,15.10
2006,12,13,04,06,9.50
2006,12,13,04,07,16.50
2006,12,13,04,08,14.30
2006,12,13,04,09,11.80
2006,12,13,04,10,19.20
2006,12,13,04,11,12.10
2006,12,13,04,12,9.10
2006,12,13,04,13,11.80
2006,12,13,04,14,13.50
2006,12,13,04,15,19.80
2006,12,13,04,16,15.60
2006,12,13,04,17,27.50
2006,12,13,04,18,23.00
2006,12,13,04,19,21.40
2006,12,13,04,20,32.30
2006,12,13,04,21,17.10
2006,12,13,04,22,19.20
2006,12,13,04,23,29.70
2006,12,13,04,24,26.60
2006,12,13,04,25,24.50
2006,12,13,04,26,30.70
2006,12,13,04,27,30.90
2006,12,13,04,28,39.50
2006,12,13,04,29,47.60
2006,12,13,04,30,34.40
2006,12,13,04,31,41.40
2006,12,13,04,32,38.40
2006,12,13,04,33,34.90
2006,12,13,04,34,25.40
2006,12,13,04,35,29.40
2006,12,13,04,36,28.70
2006,12,13,04,37,32.80
2006,12,13,04,38,21.30
2006,12,13,04,39,12.90
2006,12,13,04,40,20.40
2006,12,13,04,41,20.70
2006,12,13,04,42,14.60
2006,12,13,04,43,24.10
2006,12,13,04,44,12.30
2006,12,13,04,45,15.70
2006,12,13,04,46,23.80
2006,12,13,04,47,20.90
2006,12,13,04,48,16.00
2006,12,13,04,49,13.60
2006,12,13,04,50,13.40
2006,12,13,04,51,9.60
2006,12,13,04,52,13.50
2006,12,13,04,53,15.00
2006,12,13,04,54,13.00
2006,12,13,04,55,10.40
2006,12,13,04,56,16.20
2006,12,13,04,57,11.20
2006,12,13,04,58,6.70
2006,12,13,04,59,3.80
2006,12,13,05,00,12.00
2006,12,13,05,01,3.40
2006,12,13,05,02,9.60
2006,12,13,05,03,17.30
2006,12,13,05,04,17.60
2006,12,13,05,05,25.00
2006,12,13,05,06,20.40
2006,12,13,05,07,15.70
2006,12,13,05,08,17.20
2006,12,13,05,09,22.90
2006,12,13,05,10,16.00
2006,12,13,05,11,27.90
2006,12,13,05,12,23.90
2006,12,13,05,13,23.30
2006,12,13,05,14,31.20
2006,12,13,05,15,27.50
2006,12,13,05,16,26.60
2006,12,13,05,17,22.30
2006,12,13,05,18,28.10
2006,12,13,05,19,19.50
2006,12,13,05,20,21.50
2006,12,13,05,21,28.90
2006,12,13,05,22,27.10
2006,12,13,05,23,30.50
2006,12,13,05,24,25.10
2006,12,13,05,25,36.60
2006,12,13,05,26,35.00
2006,12,13,05,27,38.70
2006,12,13,05,28,27.40
2006,12,13,05,29,37.00
2006,12,13,05,30,24.50
2006,12,13,05,31,23.70
2006,12,13,05,32,33.10
2006,12,13,05,33,38.20
2006,12,13,05,34,25.10
2006,12,13,05,35,18.70
2006,12,13,05,36,25.70
2006,12,13,05,37,35.20
2006,12,13,05,38,29.20
2006,12,13,05,39,34.10
2006,12,13,05,40,35.00
2006,12,13,05,41,30.20
2006,12,13,05,42,31.70
2006,12,13,05,43,34.30
2006,12,13,05,44,32.70
2006,12,13,05,45,24.10
2006,12,13,05,46,33.10
2006,12,13,05,47,34.20
2006,12,13,05,48,27.90
2006,12,13,05,49,25.40
2006,12,13,05,50,34.90
2006,12,13,05,51,25.50
2006,12,13,05,52,30.90
2006,12,13,05,53,32.20
2006,12,13,05,54,24.90
2006,12,13,05,55,15.70
2006,12,13,05,56,26.30
2006,12,13,05,57,35.00
2006,12,13,05,58,33.60
2006,12,13,05,59,27.10
2006,12,13,06,00,24.90
2006,12,13,06,01,21.20
2006,12,13,06,02,27.40
2006,12,13,06,03,33.20
2006,12,13,06,04,26.10
2006,12,13,06,05,32.50
2006,12,13,06,06,36.50
2006,12,13,06,07,29.90
2006,12,13,06,08,32.30
2006,12,13,06,09,35.20
2006,12,13,06,10,26.80
2006,12,13,06,11,24.90
2006,12,13,06,12,19.60
2006,12,13,06,13,22.20
2006,12,13,06,14,23.30
2006,12,13,06,15,32.10
2006,12,13,06,16,27.70
2006,12,13,06,17,22.60
2006,12,13,06,18,22.30
2006,12,13,06,19,19.80
2006,12,13,06,20,21.10
2006,12,13,06,21,22.90
2006,12,13,06,22,32.60
2006,12,13,06,23,25.30
2006,12,13,06,24,20.90
2006,12,13,06,25,19.90
2006,12,13,06,26,26.90
2006,12,13,06,27,44.40
2006,12,13,06,28,35.00
2006,12,13,06,29,39.90
2006,12,13,06,30,34.70
2006,12,13,06,31,29.00
2006,12,13,06,32,32.20
2006,12,13,06,33,31.20
2006,12,13,06,34,30.30
2006,12,13,06,35,26.60
2006,12,13,06,36,24.60
2006,12,13,06,37,27.90
2006,12,13,06,38,35.30
2006,12,13,06,39,20.40
2006,12,13,06,40,20.70
2006,12,13,06,41,21.00
2006,12,13,06,42,23.90
2006,12,13,06,43,17.40
2006,12,13,06,44,26.80
2006,12,13,06,45,16.70
2006,12,13,06,46,20.90
2006,12,13,06,47,25.10
2006,12,13,06,48,22.00
2006,12,13,06,49,23.60
2006,12,13,06,50,22.50
2006,12,13,06,51,21.70
2006,12,13,06,52,22.60
2006,12,13,06,53,25.90
2006,12,13,06,54,27.40
2006,12,13,06,55,15.30
2006,12,13,06,56,21.40
2006,12,13,06,57,18.80
2006,12,13,06,58,19.90
2006,12,13,06,59,15.00
2006,12,13,07,00,19.20
2006,12,13,07,01,15.40
2006,12,13,07,02,16.50
2006,12,13,07,03,18.70
2006,12,13,07,04,27.40
2006,12,13,07,05,28.60
2006,12,13,07,06,31.60
2006,12,13,07,07,29.90
2006,12,13,07,08,28.30
2006,12,13,07,09,38.00
2006,12,13,07,10,53.30
2006,12,13,07,11,42.00
2006,12,13,07,12,36.20
2006,12,13,07,13,25.40
2006,12,13,07,14,28.20
2006,12,13,07,15,35.70
2006,12,13,07,16,31.60
2006,12,13,07,17,27.50
2006,12,13,07,18,40.70
2006,12,13,07,19,29.00
2006,12,13,07,20,36.90
2006,12,13,07,21,39.10
2006,12,13,07,22,37.70
2006,12,13,07,23,29.70
2006,12,13,07,24,23.80
2006,12,13,07,25,23.70
2006,12,13,07,26,28.50
2006,12,13,07,27,28.70
2006,12,13,07,28,27.80
2006,12,13,07,29,21.00
2006,12,13,07,30,24.80
2006,12,13,07,31,19.60
2006,12,13,07,32,24.80
2006,12,13,07,33,19.20
2006,12,13,07,34,24.50
2006,12,13,07,35,23.90
2006,12,13,07,36,26.60
2006,12,13,07,37,33.60
2006,12,13,07,38,20.70
2006,12,13,07,39,23.90
2006,12,13,07,40,27.80
2006,12,13,07,41,26.10
2006,12,13,07,42,23.30
2006,12,13,07,43,26.70
2006,12,13,07,44,31.00
2006,12,13,07,45,18.80
2006,12,13,07,46,18.10
2006,12,13,07,47,18.50
2006,12,13,07,48,22.70
2006,12,13,07,49,13.60
2006,12,13,07,50,19.10
2006,12,13,07,51,18.50
2006,12,13,07,52,21.60
2006,12,13,07,53,17.80
2006,12,13,07,54,17.20
2006,12,13,07,55,20.90
2006,12,13,07,56,18.90
2006,12,13,07,57,24.40
2006,12,13,07,58,26.90
2006,12,13,07,59,25.40
2006,12,13,08,00,16.40
2006,12,13,08,01,12.00
2006,12,13,08,02,22.20
2006,12,13,08,03,25.90
2006,12,13,08,04,15.70
2006,12,13,08,05,21.70
2006,12,13,08,06,28.80
2006,12,13,08,07,35.30
2006,12,13,08,08,35.20
2006,12,13,08,09,26.10
2006,12,13,08,10,26.60
2006,12,13,08,11,34.50
2006,12,13,08,12,19.00
2006,12,13,08,13,27.20
2006,12,13,08,14,27.40
2006,12,13,08,15,30.90
2006,12,13,08,16,29.40
2006,12,13,08,17,25.20
2006,12,13,08,18,26.10
2006,12,13,08,19,21.70
2006,12,13,08,20,26.70
2006,12,13,08,21,31.10
2006,12,13,08,22,25.90
2006,12,13,08,23,17.00
2006,12,13,08,24,32.00
2006,12,13,08,25,28.00
2006,12,13,08,26,22.50
2006,12,13,08,27,28.20
2006,12,13,08,28,26.10
2006,12,13,08,29,24.10
2006,12,13,08,30,22.00
2006,12,13,08,31,24.40
2006,12,13,08,32,28.90
2006,12,13,08,33,20.40
2006,12,13,08,34,22.10
2006,12,13,08,35,28.90
2006,12,13,08,36,25.80
2006,12,13,08,37,25.00
2006,12,13,08,38,24.80
2006,12,13,08,39,13.80
2006,12,13,08,40,29.50
2006,12,13,08,41,23.30
2006,12,13,08,42,19.70
2006,12,13,08,43,17.80
2006,12,13,08,44,20.50
2006,12,13,08,45,20.40
2006,12,13,08,46,19.60
2006,12,13,08,47,16.70
2006,12,13,08,48,17.50
2006,12,13,08,49,17.10
2006,12,13,08,50,17.80
2006,12,13,08,51,26.10
2006,12,13,08,52,24.90
2006,12,13,08,53,18.60
2006,12,13,08,54,11.70
2006,12,13,08,55,16.90
2006,12,13,08,56,18.80
2006,12,13,08,57,29.10
2006,12,13,08,58,20.60
2006,12,13,08,59,15.70
2006,12,13,09,00,26.40
2006,12,13,09,01,17.20
2006,12,13,09,02,23.80
2006,12,13,09,03,16.00
2006,12,13,09,04,20.50
2006,12,13,09,05,16.60
2006,12,13,09,06,19.70
2006,12,13,09,07,29.00
2006,12,13,09,08,18.20
2006,12,13,09,09,26.00
2006,12,13,09,10,24.40
2006,12,13,09,11,17.40
2006,12,13,09,12,15.40
2006,12,13,09,13,11.50
2006,12,13,09,14,10.10
2006,12,13,09,15,16.70
2006,12,13,09,16,21.10
2006,12,13,09,17,19.40
2006,12,13,09,18,17.40
2006,12,13,09,19,33.80
2006,12,13,09,20,32.70
2006,12,13,09,21,25.50
2006,12,13,09,22,27.40
2006,12,13,09,23,32.60
2006,12,13,09,24,38.90
2006,12,13,09,25,25.80
2006,12,13,09,26,25.00
2006,12,13,09,27,27.00
2006,12,13,09,28,28.70
2006,12,13,09,29,22.80
2006,12,13,09,30,17.60
2006,12,13,09,31,20.00
2006,12,13,09,32,30.30
2006,12,13,09,33,22.20
2006,12,13,09,34,25.90
2006,12,13,09,35,27.20
2006,12,13,09,36,31.70
2006,12,13,09,37,19.80
2006,12,13,09,38,26.60
2006,12,13,09,39,27.00
2006,12,13,09,40,33.80
2006,12,13,09,41,20.10
2006,12,13,09,42,21.30
2006,12,13,09,43,25.10
2006,12,13,09,44,29.00
2006,12,13,09,45,16.20
2006,12,13,09,46,21.50
2006,12,13,09,47,22.00
2006,12,13,09,48,19.90
2006,12,13,09,49,30.30
2006,12,13,09,50,21.60
2006,12,13,09,51,35.70
2006,12,13,09,52,25.80
2006,12,13,09,53,29.40
2006,12,13,09,54,20.00
2006,12,13,09,55,23.20
2006,12,13,09,56,35.60
2006,12,13,09,57,26.00
2006,12,13,09,58,25.10
2006,12,13,09,59,22.50
2006,12,13,10,00,29.40
2006,12,13,10,01,23.60
2006,12,13,10,02,28.20
2006,12,13,10,03,21.10
2006,12,13,10,04,16.30
2006,12,13,10,05,24.80
2006,12,13,10,06,17.20
2006,12,13,10,07,21.70
2006,12,13,10,08,14.80
2006,12,13,10,09,20.70
2006,12,13,10,10,20.80
2006,12,13,10,11,26.60
2006,12,13,10,12,18.50
2006,12,13,10,13,18.90
2006,12,13,10,14,17.50
2006,12,13,10,15,19.50
2006,12,13,10,16,24.60
2006,12,13,10,17,20.00
2006,12,13,10,18,26.90
2006,12,13,10,19,26.20
2006,12,13,10,20,24.90
2006,12,13,10,21,26.80
2006,12,13,10,22,18.10
2006,12,13,10,23,23.00
2006,12,13,10,24,15.70
2006,12,13,10,25,16.10
2006,12,13,10,26,25.00
2006,12,13,10,27,22.10
2006,12,13,10,28,24.20
2006,12,13,10,29,23.90
2006,12,13,10,30,30.80
2006,12,13,10,31,19.20
2006,12,13,10,32,19.60
2006,12,13,10,33,19.00
2006,12,13,10,34,16.40
2006,12,13,10,35,17.10
2006,12,13,10,36,19.30
2006,12,13,10,37,26.00
2006,12,13,10,38,22.00
2006,12,13,10,39,23.70
2006,12,13,10,40,23.40
2006,12,13,10,41,18.00
2006,12,13,10,42,30.60
2006,12,13,10,43,22.30
2006,12,13,10,44,21.30
2006,12,13,10,45,16.90
2006,12,13,10,46,28.50
2006,12,13,10,47,21.40
2006,12,13,10,48,20.60
2006,12,13,10,49,16.70
2006,12,13,10,50,17.30
2006,12,13,10,51,13.70
2006,12,13,10,52,19.50
2006,12,13,10,53,23.30
2006,12,13,10,54,15.80
2006,12,13,10,55,11.70
2006,12,13,10,56,18.30
2006,12,13,10,57,17.50
2006,12,13,10,58,19.00
2006,12,13,10,59,22.50
2006,12,13,11,00,18.60
2006,12,13,11,01,27.30
2006,12,13,11,02,26.40
2006,12,13,11,03,23.80
2006,12,13,11,04,25.50
2006,12,13,11,05,23.60
2006,12,13,11,06,15.20
2006,12,13,11,07,29.10
2006,12,13,11,08,24.30
2006,12,13,11,09,26.00
2006,12,13,11,10,33.40
2006,12,13,11,11,34.40
2006,12,13,11,12,27.70
2006,12,13,11,13,31.20
2006,12,13,11,14,24.30
2006,12,13,11,15,22.80
2006,12,13,11,16,20.80
2006,12,13,11,17,19.00
2006,12,13,11,18,24.50
2006,12,13,11,19,24.10
2006,12,13,11,20,22.90
2006,12,13,11,21,30.70
2006,12,13,11,22,33.30
2006,12,13,11,23,26.10
2006,12,13,11,24,24.40
2006,12,13,11,25,18.40
2006,12,13,11,26,22.80
2006,12,13,11,27,24.70
2006,12,13,11,28,30.20
2006,12,13,11,29,23.00
2006,12,13,11,30,17.60
2006,12,13,11,31,18.80
2006,12,13,11,32,15.00
2006,12,13,11,33,20.10
2006,12,13,11,34,17.50
2006,12,13,11,35,15.90
2006,12,13,11,36,10.60
2006,12,13,11,37,17.50
2006,12,13,11,38,18.30
2006,12,13,11,39,17.30
2006,12,13,11,40,26.60
2006,12,13,11,41,19.30
2006,12,13,11,42,18.80
2006,12,13,11,43,21.30
2006,12,13,11,44,24.50
2006,12,13,11,45,22.90
2006,12,13,11,46,25.30
2006,12,13,11,47,27.30
2006,12,13,11,48,21.50
2006,12,13,11,49,18.90
2006,12,13,11,50,31.30
2006,12,13,11,51,14.60
2006,12,13,11,52,19.00
2006,12,13,11,53,23.50
2006,12,13,11,54,16.20
2006,12,13,11,55,28.40
2006,12,13,11,56,16.60
2006,12,13,11,57,20.30
2006,12,13,11,58,25.30
2006,12,13,11,59,26.20
2006,12,13,12,00,22.80
2006,12,13,12,01,28.40
2006,12,13,12,02,26.70
2006,12,13,12,03,26.80
2006,12,13,12,04,18.80
2006,12,13,12,05,15.00
2006,12,13,12,06,13.50
2006,12,13,12,07,15.80
2006,12,13,12,08,17.20
2006,12,13,12,09,18.10
2006,12,13,12,10,28.20
2006,12,13,12,11,24.10
2006,12,13,12,12,18.60
2006,12,13,12,13,18.90
2006,12,13,12,14,20.90
2006,12,13,12,15,26.70
2006,12,13,12,16,25.70
2006,12,13,12,17,17.20
2006,12,13,12,18,21.30
2006,12,13,12,19,16.40
2006,12,13,12,20,15.10
2006,12,13,12,21,13.40
2006,12,13,12,22,21.70
2006,12,13,12,23,17.10
2006,12,13,12,24,26.70
2006,12,13,12,25,22.00
2006,12,13,12,26,17.70
2006,12,13,12,27,21.30
2006,12,13,12,28,21.70
2006,12,13,12,29,23.20
2006,12,13,12,30,31.80
2006,12,13,12,31,23.70
2006,12,13,12,32,20.10
2006,12,13,12,33,19.50
2006,12,13,12,34,15.50
2006,12,13,12,35,28.70
2006,12,13,12,36,18.90
2006,12,13,12,37,20.20
2006,12,13,12,38,22.80
2006,12,13,12,39,25.80
2006,12,13,12,40,21.00
2006,12,13,12,41,28.20
2006,12,13,12,42,25.80
2006,12,13,12,43,27.10
2006,12,13,12,44,19.30
2006,12,13,12,45,25.80
2006,12,13,12,46,15.80
2006,12,13,12,47,19.80
2006,12,13,12,48,19.70
2006,12,13,12,49,20.60
2006,12,13,12,50,29.50
2006,12,13,12,51,16.40
2006,12,13,12,52,18.30
2006,12,13,12,53,27.10
2006,12,13,12,54,33.60
2006,12,13,12,55,30.90
2006,12,13,12,56,21.00
2006,12,13,12,57,16.80
2006,12,13,12,58,15.10
2006,12,13,12,59,19.50
2006,12,13,13,00,18.80
2006,12,13,13,01,22.50
2006,12,13,13,02,14.00
2006,12,13,13,03,12.00
2006,12,13,13,04,23.00
2006,12,13,13,05,21.20
2006,12,13,13,06,30.20
2006,12,13,13,07,36.40
2006,12,13,13,08,32.40
2006,12,13,13,09,24.40
2006,12,13,13,10,27.80
2006,12,13,13,11,21.60
2006,12,13,13,12,24.10
2006,12,13,13,13,19.60
2006,12,13,13,14,25.70
2006,12,13,13,15,19.80
2006,12,13,13,16,22.70
2006,12,13,13,17,31.80
2006,12,13,13,18,17.10
2006,12,13,13,19,22.60
2006,12,13,13,20,27.80
2006,12,13,13,21,25.20
2006,12,13,13,22,21.70
2006,12,13,13,23,20.20
2006,12,13,13,24,25.60
2006,12,13,13,25,17.10
2006,12,13,13,26,17.30
2006,12,13,13,27,18.90
2006,12,13,13,28,21.20
2006,12,13,13,29,17.30
2006,12,13,13,30,20.50
2006,12,13,13,31,25.70
2006,12,13,13,32,22.20
2006,12,13,13,33,21.30
2006,12,13,13,34,32.70
2006,12,13,13,35,31.10
2006,12,13,13,36,24.00
2006,12,13,13,37,20.10
2006,12,13,13,38,18.80
2006,12,13,13,39,17.20
2006,12,13,13,40,23.30
2006,12,13,13,41,27.40
2006,12,13,13,42,29.60
2006,12,13,13,43,33.50
2006,12,13,13,44,30.30
2006,12,13,13,45,24.90
2006,12,13,13,46,29.90
2006,12,13,13,47,25.80
2006,12,13,13,48,23.10
2006,12,13,13,49,22.40
2006,12,13,13,50,21.80
2006,12,13,13,51,19.10
2006,12,13,13,52,24.60
2006,12,13,13,53,15.80
2006,12,13,13,54,21.10
2006,12,13,13,55,16.90
2006,12,13,13,56,18.40
2006,12,13,13,57,24.90
2006,12,13,13,58,18.10
2006,12,13,13,59,20.00
2006,12,13,14,00,19.60
2006,12,13,14,01,12.40
2006,12,13,14,02,23.10
2006,12,13,14,03,25.00
2006,12,13,14,04,29.00
2006,12,13,14,05,24.70
2006,12,13,14,06,26.00
2006,12,13,14,07,27.50
2006,12,13,14,08,24.60
2006,12,13,14,09,22.90
2006,12,13,14,10,18.90
2006,12,13,14,11,18.60
2006,12,13,14,12,24.50
2006,12,13,14,13,19.00
2006,12,13,14,14,17.40
2006,12,13,14,15,23.60
2006,12,13,14,16,18.10
2006,12,13,14,17,22.90
2006,12,13,14,18,20.00
2006,12,13,14,19,14.40
2006,12,13,14,20,27.70
2006,12,13,14,21,21.90
2006,12,13,14,22,20.60
2006,12,13,14,23,12.60
2006,12,13,14,24,13.10
2006,12,13,14,25,19.20
2006,12,13,14,26,20.50
2006,12,13,14,27,26.00
2006,12,13,14,28,23.00
2006,12,13,14,29,23.60
2006,12,13,14,30,19.40
2006,12,13,14,31,15.80
2006,12,13,14,32,18.60
2006,12,13,14,33,23.90
2006,12,13,14,34,17.40
2006,12,13,14,35,21.60
2006,12,13,14,36,23.10
2006,12,13,14,37,20.00
2006,12,13,14,38,22.90
2006,12,13,14,39,26.60
2006,12,13,14,40,34.70
2006,12,13,14,41,19.60
2006,12,13,14,42,23.90
2006,12,13,14,43,26.90
2006,12,13,14,44,31.10
2006,12,13,14,45,35.30
2006,12,13,14,46,31.50
2006,12,13,14,47,28.80
2006,12,13,14,48,36.80
2006,12,13,14,49,44.50
2006,12,13,14,50,33.50
2006,12,13,14,51,29.50
2006,12,13,14,52,26.40
2006,12,13,14,53,29.70
2006,12,13,14,54,28.60
2006,12,13,14,55,25.30
2006,12,13,14,56,17.20
2006,12,13,14,57,12.70
2006,12,13,14,58,24.20
2006,12,13,14,59,37.60
2006,12,13,15,00,18.40
2006,12,13,15,01,21.20
2006,12,13,15,02,15.70
2006,12,13,15,03,18.30
2006,12,13,15,04,12.20
2006,12,13,15,05,27.90
2006,12,13,15,06,22.20
2006,12,13,15,07,25.40
2006,12,13,15,08,20.80
2006,12,13,15,09,17.50
2006,12,13,15,10,26.10
2006,12,13,15,11,30.90
2006,12,13,15,12,28.00
2006,12,13,15,13,23.50
2006,12,13,15,14,24.50
2006,12,13,15,15,19.80
2006,12,13,15,16,12.60
2006,12,13,15,17,20.80
2006,12,13,15,18,13.70
2006,12,13,15,19,18.90
2006,12,13,15,20,26.30
2006,12,13,15,21,17.60
2006,12,13,15,22,24.80
2006,12,13,15,23,16.40
2006,12,13,15,24,16.60
2006,12,13,15,25,22.10
2006,12,13,15,26,15.00
2006,12,13,15,27,11.70
2006,12,13,15,28,28.10
2006,12,13,15,29,20.00
2006,12,13,15,30,19.90
2006,12,13,15,31,19.60
2006,12,13,15,32,12.30
2006,12,13,15,33,9.30
2006,12,13,15,34,20.80
2006,12,13,15,35,10.30
2006,12,13,15,36,16.60
2006,12,13,15,37,16.80
2006,12,13,15,38,11.40
2006,12,13,15,39,12.60
2006,12,13,15,40,16.00
2006,12,13,15,41,16.10
2006,12,13,15,42,11.60
2006,12,13,15,43,13.80
2006,12,13,15,44,15.20
2006,12,13,15,45,11.70
2006,12,13,15,46,12.60
2006,12,13,15,47,17.30
2006,12,13,15,48,14.70
2006,12,13,15,49,13.50
2006,12,13,15,50,17.50
2006,12,13,15,51,14.10
2006,12,13,15,52,13.90
2006,12,13,15,53,13.30
2006,12,13,15,54,16.30
2006,12,13,15,55,14.60
2006,12,13,15,56,11.50
2006,12,13,15,57,21.30
2006,12,13,15,58,19.90
2006,12,13,15,59,11.80
2006,12,13,16,00,19.20
2006,12,13,16,01,21.90
2006,12,13,16,02,15.20
2006,12,13,16,03,18.20
2006,12,13,16,04,30.50
2006,12,13,16,05,24.70
2006,12,13,16,06,30.80
2006,12,13,16,07,21.90
2006,12,13,16,08,27.00
2006,12,13,16,09,28.20
2006,12,13,16,10,22.60
2006,12,13,16,11,15.90
2006,12,13,16,12,18.30
2006,12,13,16,13,19.60
2006,12,13,16,14,15.40
2006,12,13,16,15,19.20
2006,12,13,16,16,28.10
2006,12,13,16,17,15.10
2006,12,13,16,18,18.30
2006,12,13,16,19,18.60
2006,12,13,16,20,20.10
2006,12,13,16,21,13.30
2006,12,13,16,22,19.20
2006,12,13,16,23,15.50
2006,12,13,16,24,11.60
2006,12,13,16,25,12.00
2006,12,13,16,26,14.20
2006,12,13,16,27,18.60
2006,12,13,16,28,27.20
2006,12,13,16,29,37.80
2006,12,13,16,30,34.20
2006,12,13,16,31,29.00
2006,12,13,16,32,19.90
2006,12,13,16,33,21.20
2006,12,13,16,34,20.30
2006,12,13,16,35,23.00
2006,12,13,16,36,22.60
2006,12,13,16,37,26.70
2006,12,13,16,38,19.50
2006,12,13,16,39,24.80
2006,12,13,16,40,18.80
2006,12,13,16,41,18.10
2006,12,13,16,42,23.60
2006,12,13,16,43,14.90
2006,12,13,16,44,12.10
2006,12,13,16,45,18.90
2006,12,13,16,46,26.10
2006,12,13,16,47,26.00
2006,12,13,16,48,27.00
2006,12,13,16,49,23.80
2006,12,13,16,50,15.70
2006,12,13,16,51,13.70
2006,12,13,16,52,16.20
2006,12,13,16,53,16.20
2006,12,13,16,54,18.50
2006,12,13,16,55,19.70
2006,12,13,16,56,17.50
2006,12,13,16,57,19.80
2006,12,13,16,58,15.10
2006,12,13,16,59,18.80
2006,12,13,17,00,23.80
2006,12,13,17,01,19.50
2006,12,13,17,02,25.50
2006,12,13,17,03,14.90
2006,12,13,17,04,13.30
2006,12,13,17,05,17.00
2006,12,13,17,06,11.90
2006,12,13,17,07,12.00
2006,12,13,17,08,8.20
2006,12,13,17,09,22.60
2006,12,13,17,10,16.50
2006,12,13,17,11,13.00
2006,12,13,17,12,17.10
2006,12,13,17,13,17.70
2006,12,13,17,14,14.20
2006,12,13,17,15,17.20
2006,12,13,17,16,15.30
2006,12,13,17,17,11.80
2006,12,13,17,18,21.70
2006,12,13,17,19,15.70
2006,12,13,17,20,15.00
2006,12,13,17,21,31.60
2006,12,13,17,22,21.40
2006,12,13,17,23,21.90
2006,12,13,17,24,16.20
2006,12,13,17,25,25.00